When you browse on this site, cookies collect data to enhance your experience and personalize the content and advertising you see.
Visit our Privacy Policy to learn more. By continuing to use the site, you agree to this use of cookies and data.
  • In Österreich
  • Länderverzeichnis
  • Für 7 Tage
  • Wassertemperatur
  • Satellitenkarten
  • Wetterkarte
  • News
  • Widgets
  • user-avatar
    Anmelden

    Stündliche Wetter Conway

    Heute, 26 Juni, Mittwoch

    Zeit Temperatur Niederschläge Wind Luftdruck Luftfeuchtigkeit
    00:00 +24°C° 0 mm 1 m/S 754 mmHg 96%
    01:00 +24°C° 0 mm 1 m/S 754 mmHg 96%
    02:00 +23°C° 0 mm 1 m/S 754 mmHg 96%
    03:00 +21°C° 0 mm 0 m/S 754 mmHg 96%
    04:00 +21°C° 0 mm 0 m/S 754 mmHg 96%
    05:00 +21°C° 0 mm 0 m/S 755 mmHg 95%
    06:00 +22°C° 0 mm 0 m/S 755 mmHg 94%
    07:00 +25°C° 0 mm 1 m/S 755 mmHg 88%
    08:00 +26°C° 0 mm 2 m/S 755 mmHg 82%
    09:00 +28°C° 0 mm 4 m/S 756 mmHg 76%
    10:00 +30°C° 0 mm 3 m/S 756 mmHg 69%
    11:00 +31°C° 0 mm 3 m/S 756 mmHg 61%
    12:00 +34°C° 0 mm 3 m/S 756 mmHg 53%
    13:00 +35°C° 0 mm 3 m/S 756 mmHg 51%
    14:00 +35°C° 0 mm 3 m/S 755 mmHg 50%
    15:00 +36°C° 0 mm 3 m/S 755 mmHg 48%
    16:00 +35°C° 0 mm 3 m/S 755 mmHg 55%
    17:00 +34°C° 0 mm 2 m/S 755 mmHg 61%
    18:00 +32°C° 0 mm 2 m/S 755 mmHg 67%
    19:00 +30°C° 0.1 mm 2 m/S 755 mmHg 73%
    20:00 +28°C° 0.1 mm 1 m/S 755 mmHg 78%
    21:00 +26°C° 0.1 mm 1 m/S 756 mmHg 84%
    22:00 +25°C° 0.2 mm 1 m/S 756 mmHg 85%
    23:00 +25°C° 0.2 mm 1 m/S 756 mmHg 87%

    Morgen, 27 Juni, Donnerstag

    Zeit Temperatur Niederschläge Wind Luftdruck Luftfeuchtigkeit
    00:00 +24°C° 0.2 mm 1 m/S 756 mmHg 89%
    01:00 +24°C° 0 mm 1 m/S 756 mmHg 90%
    02:00 +23°C° 0 mm 1 m/S 756 mmHg 91%
    03:00 +21°C° 0 mm 0 m/S 756 mmHg 92%
    04:00 +21°C° 0 mm 0 m/S 757 mmHg 92%
    05:00 +24°C° 0 mm 1 m/S 757 mmHg 92%
    06:00 +24°C° 0 mm 1 m/S 757 mmHg 92%
    07:00 +26°C° 0 mm 1 m/S 757 mmHg 83%
    08:00 +28°C° 0 mm 1 m/S 757 mmHg 75%
    09:00 +31°C° 0 mm 1 m/S 757 mmHg 66%
    10:00 +32°C° 0 mm 1 m/S 757 mmHg 59%
    11:00 +34°C° 0 mm 1 m/S 757 mmHg 52%
    12:00 +35°C° 0 mm 1 m/S 757 mmHg 45%
    13:00 +35°C° 0 mm 1 m/S 756 mmHg 45%
    14:00 +35°C° 0 mm 1 m/S 756 mmHg 45%
    15:00 +36°C° 0 mm 2 m/S 756 mmHg 45%
    16:00 +35°C° 0 mm 2 m/S 755 mmHg 51%
    17:00 +34°C° 0 mm 2 m/S 755 mmHg 58%
    18:00 +32°C° 0 mm 2 m/S 755 mmHg 65%
    19:00 +30°C° 0 mm 1 m/S 755 mmHg 69%
    20:00 +29°C° 0 mm 1 m/S 755 mmHg 73%
    21:00 +27°C° 0 mm 1 m/S 755 mmHg 77%
    22:00 +26°C° 0 mm 1 m/S 755 mmHg 79%
    23:00 +26°C° 0 mm 1 m/S 755 mmHg 82%

    übermorgen, 28 Juni, Freitag

    Zeit Temperatur Niederschläge Wind Luftdruck Luftfeuchtigkeit
    00:00 +25°C° 0 mm 1 m/S 755 mmHg 84%
    01:00 +25°C° 0 mm 1 m/S 755 mmHg 85%
    02:00 +22°C° 0 mm 0 m/S 756 mmHg 87%
    03:00 +22°C° 0 mm 0 m/S 756 mmHg 88%
    04:00 +22°C° 0.1 mm 0 m/S 756 mmHg 88%
    05:00 +22°C° 0.1 mm 0 m/S 756 mmHg 88%
    06:00 +23°C° 0.1 mm 0 m/S 756 mmHg 89%
    07:00 +25°C° 0 mm 0 m/S 756 mmHg 82%
    08:00 +27°C° 0 mm 0 m/S 756 mmHg 74%
    09:00 +31°C° 0 mm 1 m/S 757 mmHg 67%
    10:00 +32°C° 0.2 mm 1 m/S 756 mmHg 61%
    11:00 +33°C° 0.2 mm 1 m/S 756 mmHg 55%
    12:00 +36°C° 0.2 mm 2 m/S 756 mmHg 49%
    13:00 +36°C° 0 mm 2 m/S 756 mmHg 49%
    14:00 +35°C° 0 mm 2 m/S 755 mmHg 50%
    15:00 +35°C° 0 mm 2 m/S 755 mmHg 51%
    16:00 +34°C° 0.4 mm 2 m/S 755 mmHg 60%
    17:00 +31°C° 0.4 mm 3 m/S 754 mmHg 70%
    18:00 +29°C° 0.4 mm 3 m/S 754 mmHg 79%
    19:00 +28°C° 0.3 mm 2 m/S 754 mmHg 83%
    20:00 +26°C° 0.3 mm 2 m/S 755 mmHg 87%
    21:00 +24°C° 0.3 mm 1 m/S 755 mmHg 91%
    22:00 +24°C° 0.1 mm 1 m/S 755 mmHg 91%
    23:00 +21°C° 0.1 mm 0 m/S 755 mmHg 91%

    29 Juni, Samstag

    Zeit Temperatur Niederschläge Wind Luftdruck Luftfeuchtigkeit
    00:00 +21°C° 0.1 mm 0 m/S 755 mmHg 91%
    01:00 +21°C° 0 mm 0 m/S 755 mmHg 91%
    02:00 +20°C° 0 mm 0 m/S 755 mmHg 91%
    03:00 +20°C° 0 mm 0 m/S 755 mmHg 91%
    04:00 +20°C° 0 mm 0 m/S 755 mmHg 91%
    05:00 +21°C° 0 mm 0 m/S 755 mmHg 91%
    06:00 +21°C° 0 mm 0 m/S 755 mmHg 90%
    07:00 +24°C° 0 mm 0 m/S 756 mmHg 81%
    08:00 +26°C° 0 mm 0 m/S 756 mmHg 72%
    09:00 +31°C° 0 mm 1 m/S 756 mmHg 64%
    10:00 +33°C° 0 mm 1 m/S 756 mmHg 60%
    11:00 +34°C° 0 mm 1 m/S 756 mmHg 54%
    12:00 +35°C° 0 mm 1 m/S 756 mmHg 48%
    13:00 +35°C° 0 mm 1 m/S 755 mmHg 47%
    14:00 +36°C° 0 mm 2 m/S 755 mmHg 45%
    15:00 +36°C° 0 mm 2 m/S 754 mmHg 44%
    16:00 +35°C° 0 mm 2 m/S 754 mmHg 51%
    17:00 +34°C° 0 mm 2 m/S 754 mmHg 57%
    18:00 +32°C° 0 mm 2 m/S 754 mmHg 64%
    19:00 +30°C° 0 mm 2 m/S 754 mmHg 67%
    20:00 +28°C° 0 mm 1 m/S 754 mmHg 70%
    21:00 +27°C° 0 mm 1 m/S 755 mmHg 73%
    22:00 +26°C° 0 mm 1 m/S 755 mmHg 76%
    23:00 +25°C° 0 mm 1 m/S 755 mmHg 78%

    30 Juni, Sonntag

    Zeit Temperatur Niederschläge Wind Luftdruck Luftfeuchtigkeit
    00:00 +23°C° 0 mm 0 m/S 755 mmHg 81%
    01:00 +22°C° 0 mm 0 m/S 755 mmHg 83%
    02:00 +22°C° 0 mm 0 m/S 755 mmHg 85%
    03:00 +22°C° 0 mm 0 m/S 755 mmHg 87%
    04:00 +22°C° 0 mm 0 m/S 755 mmHg 87%
    05:00 +22°C° 0 mm 0 m/S 755 mmHg 87%
    06:00 +23°C° 0 mm 0 m/S 755 mmHg 88%
    07:00 +25°C° 0.1 mm 0 m/S 755 mmHg 80%
    08:00 +27°C° 0.1 mm 0 m/S 756 mmHg 72%
    09:00 +30°C° 0.1 mm 0 m/S 756 mmHg 64%
    10:00 +32°C° 0.7 mm 1 m/S 755 mmHg 61%
    11:00 +33°C° 0.7 mm 1 m/S 755 mmHg 57%
    12:00 +34°C° 0.7 mm 2 m/S 755 mmHg 54%
    13:00 +34°C° 0 mm 2 m/S 754 mmHg 53%
    14:00 +35°C° 0 mm 2 m/S 754 mmHg 52%
    15:00 +35°C° 0 mm 3 m/S 753 mmHg 51%
    16:00 +34°C° 0.1 mm 2 m/S 753 mmHg 57%
    17:00 +32°C° 0.1 mm 2 m/S 753 mmHg 62%
    18:00 +31°C° 0.1 mm 2 m/S 753 mmHg 68%
    19:00 +30°C° 0.2 mm 1 m/S 753 mmHg 72%
    20:00 +28°C° 0.2 mm 1 m/S 754 mmHg 76%
    21:00 +26°C° 0.2 mm 1 m/S 754 mmHg 81%
    22:00 +26°C° 0.1 mm 1 m/S 754 mmHg 82%
    23:00 +25°C° 0.1 mm 1 m/S 754 mmHg 84%

    1 Juli, Montag

    Zeit Temperatur Niederschläge Wind Luftdruck Luftfeuchtigkeit
    00:00 +25°C° 0.1 mm 1 m/S 754 mmHg 86%
    01:00 +25°C° 0.1 mm 1 m/S 754 mmHg 87%
    02:00 +22°C° 0.1 mm 0 m/S 754 mmHg 89%
    03:00 +22°C° 0.1 mm 0 m/S 754 mmHg 91%
    04:00 +22°C° 0.4 mm 0 m/S 754 mmHg 91%
    05:00 +23°C° 0.4 mm 0 m/S 754 mmHg 91%
    06:00 +23°C° 0.4 mm 0 m/S 755 mmHg 92%
    07:00 +25°C° 0.7 mm 0 m/S 755 mmHg 87%
    08:00 +28°C° 0.7 mm 1 m/S 755 mmHg 82%
    09:00 +30°C° 0.7 mm 1 m/S 755 mmHg 76%
    10:00 +31°C° 1.3 mm 1 m/S 755 mmHg 68%
    11:00 +33°C° 1.3 mm 1 m/S 755 mmHg 61%
    12:00 +34°C° 1.3 mm 1 m/S 754 mmHg 53%
    13:00 +35°C° 0.1 mm 2 m/S 754 mmHg 50%
    14:00 +36°C° 0.1 mm 2 m/S 753 mmHg 47%
    15:00 +36°C° 0.1 mm 2 m/S 753 mmHg 45%
    16:00 +35°C° 0 mm 2 m/S 752 mmHg 51%
    17:00 +33°C° 0 mm 1 m/S 752 mmHg 57%
    18:00 +33°C° 0 mm 1 m/S 752 mmHg 64%
    19:00 +31°C° 0 mm 1 m/S 752 mmHg 68%
    20:00 +29°C° 0 mm 1 m/S 753 mmHg 72%
    21:00 +28°C° 0 mm 1 m/S 753 mmHg 76%
    22:00 +27°C° 0 mm 1 m/S 753 mmHg 79%
    23:00 +27°C° 0 mm 1 m/S 753 mmHg 81%
    Mehr zeigen